This is the latest recevied weather packets stored in our database for station/object KD8NVS-13. If no packets are shown the sender has not sent any weather packets the latest 10 day(s).
| Time | Temp. | Humidity | Pressure | Rain* | Wind** | Luminosity | Snow |
|---|---|---|---|---|---|---|---|
| 1777461653 | 12.78° C | 97% | 999.8 hPa | 0 mm | - | 28 W/m² | - |
| 1777461348 | 12.78° C | 97% | 1000.5 hPa | 0 mm | - | 17 W/m² | - |
| 1777461044 | 12.78° C | 97% | 1000.5 hPa | 0 mm | - | 14 W/m² | - |
| 1777460740 | 12.78° C | 97% | 999.8 hPa | 0 mm | - | 9 W/m² | - |
| 1777460436 | 12.78° C | 97% | 999.8 hPa | 0 mm | - | 6 W/m² | - |
| 1777460132 | 12.78° C | 97% | 999.8 hPa | 0 mm | - | 4 W/m² | - |
| 1777459829 | 12.78° C | 97% | 1000.1 hPa | 0 mm | - | 3 W/m² | - |
| 1777459526 | 12.78° C | 97% | 1000.5 hPa | 0 mm | - | 2 W/m² | - |
| 1777459224 | 12.78° C | 97% | 1000.5 hPa | 0 mm | - | 2 W/m² | - |
| 1777458921 | 12.78° C | 97% | 1000.5 hPa | 0 mm | - | 1 W/m² | - |
| 1777458617 | 12.78° C | 97% | 1000.5 hPa | 0 mm | - | 1 W/m² | - |
| 1777458314 | 12.78° C | 97% | 1000.8 hPa | 0 mm | - | 0 W/m² | - |
| 1777458009 | 12.78° C | 97% | 1000.8 hPa | 0 mm | - | 0 W/m² | - |
| 1777457706 | 12.78° C | 97% | 1000.8 hPa | 0 mm | - | 0 W/m² | - |
| 1777457400 | 12.78° C | 97% | 1001.1 hPa | 0 mm | - | 0 W/m² | - |
| 1777457096 | 12.78° C | 97% | 1001.1 hPa | 0 mm | - | 0 W/m² | - |
| 1777456792 | 12.78° C | 97% | 1001.5 hPa | 0.25 mm | - | 0 W/m² | - |
| 1777456491 | 12.78° C | 97% | 1001.1 hPa | 0.25 mm | - | 0 W/m² | - |
| 1777456187 | 12.78° C | 97% | 1001.1 hPa | 0.25 mm | - | 0 W/m² | - |
| 1777455883 | 12.78° C | 97% | 1001.5 hPa | 0.25 mm | - | 0 W/m² | - |
| 1777455581 | 12.78° C | 97% | 1001.1 hPa | 0.25 mm | - | 0 W/m² | - |
| 1777455277 | 12.78° C | 97% | 1000.8 hPa | 0.25 mm | - | 0 W/m² | - |
| 1777454974 | 12.78° C | 97% | 1001.1 hPa | 0.25 mm | - | 0 W/m² | - |
| 1777454671 | 12.78° C | 97% | 1001.1 hPa | 0.25 mm | - | 0 W/m² | - |
| 1777454366 | 12.78° C | 97% | 1000.8 hPa | 0.25 mm | - | 0 W/m² | - |
* Rain latest hour (hover to see other rain measurements)
** Current wind speed in m/s (hover to see current wind gust speed)